[[{"header":{"parameterUnit":"m.s-1","parameterCategory":1,"la1":30.2991,"la2":30.254,"lo1":-89.0895,"lo2":-89.0444,"dy":0.0017,"dx":0.0017,"nx":28,"ny":28,"refTime":"2023-03-30T21:00:00:Z","depth":0,"parameterNumber":2,"parameterNumberName":"U-component_of_WINDS"},"data":[0,0,0,0,0,0,0,0,0,0,0,0,0,0,0,0,0,0,0,0,0,0,0,0,0,0,0,0,0,0,0,0,0,0,0,0,0,0,0,0,0,0,0,0,0,0,0,0,0,0,0,0,0,0,0,0,0,0,0.0033,0.0034,0,0.0128,0.0129,0.013,0.0148,0.0147,0.0146,0.0145,0.0245,0.0249,0.0252,0,0,0,0,0,0,0,0,0,0,0,0,0,-0.0131,-0.0128,0.0033,0.0034,0.0035,0.0128,0.0129,0.013,0.0148,0.0147,0.0146,0.0145,0.0244,0.0248,0.0252,0,0,0,0,0,0,0,0,0,0,0,0,0,-0.005,-0.0127,0.0032,0.0055,0.0058,0.0127,0.0129,0.0131,0.0148,0.0147,0.0146,0.0145,0.0243,0.0248,0.0253,0.0307,0,0,0.0268,0.027,0,0,0,0,0,0,0,0,-0.0055,-0.0044,0.005,0.0053,0.0057,0.0125,0.0108,0.019,0.0148,0.0114,0.0145,0.0144,0.0206,0.0214,0.0235,0.0312,0.0316,0.0269,0.0272,0.0274,0.0275,0,0,0,0,0,0,0,-0.0061,-0.0048,0.007,0.0052,0.0056,0.0061,0.0071,0.0123,0.0166,0.0117,0.0118,0.0129,0.0208,0.023,0.0237,0.0318,0.0269,0.0273,0.0276,0.0278,0.0445,0.0447,0,0,0,0,0,0,-0.0071,-0.0053,0.0067,0.0073,-0.0003,0.0065,0.0076,0.0104,0.0165,0.0173,0.013,0.013,0.0222,0.0231,0.0241,0.0309,0.0274,0.0279,0.0282,0.0444,0.0446,0.0447,0,0,0,0,0,0,-0.0074,-0.006,0.0064,0.001,0.0027,0.0069,0.01,0.0107,0.0129,0.0175,0.0183,0.0145,0.0221,0.0234,0.0291,0.0313,0.0281,0.0286,0.0442,0.0445,0.0446,0.0446,0,0,0,0,0,0,-0.0079,-0.0061,-0.0041,0.0011,0.0029,0.0111,0.0101,0.0109,0.0137,0.0137,0.0191,0.0198,0.0221,0.0283,0.0296,0.0319,0.0289,0.0441,0.0443,0.0446,0.0444,0.0448,0.0451,0,0,0,0,0,-0.0085,-0.0044,-0.004,-0.0026,0.0056,0.0112,0.0123,0.0148,0.0139,0.016,0.019,0.0197,0.0308,0.0289,0.0303,0.0329,0.0439,0.0443,0.0446,0.0443,0.0447,0.0451,0,0,0,0,0,0,-0.0094,-0.0037,-0.0032,0.0027,0.0064,0.0115,0.0143,0.0151,0.0193,0.0192,0.0221,0.0233,0.0289,0.0314,0.0292,0.0385,0.0373,0.0379,0.0366,0.0371,0.0374,0.0367,0.0294,0,0,0,0,0,-0.0089,-0.0049,-0.0001,0.0046,0.0064,0.01,0.0126,0.0141,0.0182,0.0198,0.0232,0.0272,0.0317,0.0345,0.0388,0.0448,0.046,0.0473,0.0476,0.0479,0.0484,0.0518,0.0525,0.0458,0.0458,0.0457,0,0,-0.0079,-0.0043,-0.0019,0.0045,0.0076,0.0118,0.0114,0.0158,0.019,0.0206,0.0261,0.0288,0.0334,0.0393,0.0421,0.0416,0.0505,0.0483,0.0484,0.0488,0.0522,0.0528,0.0534,0.046,0.0459,0.0459,0,0,-0.0038,-0.0008,0.0035,0.0066,0.0113,0.0137,0.0147,0.0197,0.0215,0.0271,0.0284,0.0322,0.0398,0.043,0.0457,0.051,0.0518,0.0523,0.0541,0.0574,0.058,0.0584,0.0604,0.0611,0.0528,0.0528,0.0528,0,-0.0031,0.0032,0.0056,0.01,0.0129,0.0144,0.0188,0.0217,0.0276,0.0296,0.0289,0.0384,0.0417,0.0484,0.0496,0.0517,0.0531,0.0518,0.0577,0.0582,0.0587,0.0606,0.0613,0.0529,0.0529,0.0528,0.0528,0,0.0039,0.0083,0.0112,0.0167,0.0199,0.0243,0.0274,0.0303,0.0316,0.0341,0.0399,0.0438,0.0489,0.0506,0.052,0.0576,0.0571,0.057,0.056,0.0593,0.0612,0.0619,0.0529,0.0529,0.0529,0.0529,0,0,0.0077,0.0145,0.0156,0.0182,0.0235,0.0269,0.0314,0.0364,0.0389,0.0429,0.0468,0.0531,0.0531,0.0561,0.0578,0.0607,0.0647,0.0603,0.0604,0.061,0.0713,0.0713,0.0721,0.0653,0.0654,0.0655,0.0709,0,0.0124,0.0204,0.0227,0.0295,0.0336,0.0351,0.039,0.0428,0.0452,0.0491,0.0518,0.0563,0.0558,0.0577,0.0606,0.0636,0.0668,0.0632,0.069,0.0692,0.0679,0.0731,0.0732,0.0781,0.0716,0.0717,0.0718,0,0.019,0.0231,0.0302,0.0351,0.0369,0.0404,0.0451,0.0488,0.0531,0.0547,0.058,0.0595,0.0643,0.0629,0.0696,0.0672,0.0697,0.0715,0.0718,0.0725,0.0708,0.074,0.0797,0.0804,0.073,0.0729,0.0728,0,0.0211,0.0284,0.0337,0.0358,0.0416,0.044,0.0465,0.0507,0.0535,0.0577,0.0596,0.0644,0.067,0.0706,0.0734,0.0721,0.0799,0.0787,0.0815,0.0814,0.0831,0.083,0.0893,0.0846,0.0846,0.0846,0.0845,0,0.0262,0.0306,0.0347,0.0379,0.0429,0.0455,0.0504,0.053,0.0567,0.0605,0.0621,0.0657,0.069,0.0731,0.0753,0.0806,0.0817,0.0832,0.0838,0.0831,0.0829,0.0849,0.0846,0.0848,0.0847,0.0847,0.0846,0,0.0295,0.0324,0.0382,0.0432,0.0445,0.0479,0.0522,0.0555,0.0579,0.0628,0.0641,0.068,0.0728,0.0759,0.0821,0.0836,0.0894,0.0898,0.0879,0.0882,0.0908,0.0906,0.0987,0.0999,0.0943,0.0943,0.0944,0,0.0325,0.0359,0.0412,0.0439,0.0464,0.0506,0.0535,0.0563,0.0593,0.0645,0.0671,0.0721,0.0762,0.0839,0.0873,0.0921,0.0927,0.0952,0.0934,0.0927,0.0928,0.0926,0.093,0.0955,0.0955,0.0956,0.0956,0,0.0377,0.039,0.0431,0.0478,0.0512,0.055,0.0588,0.0609,0.0644,0.0677,0.0726,0.0758,0.0821,0.087,0.0921,0.0948,0.0958,0.0961,0.097,0.0965,0.0953,0.096,0.0888,0.096,0.0959,0.0959,0.0959,0.0959,0.0411,0.0441,0.0484,0.0529,0.0561,0.0596,0.0629,0.0658,0.0699,0.0752,0.0766,0.0818,0.0861,0.093,0.0958,0.1,0.0997,0.1009,0.1013,0.1016,0.1017,0.0945,0.1009,0.1009,0.1009,0.1009,0.1009,0,0.0464,0.0492,0.0533,0.0586,0.0622,0.0627,0.067,0.07,0.0745,0.0784,0.0824,0.0881,0.0929,0.0967,0.1017,0.1043,0.1049,0.1055,0.1054,0.106,0.1016,0.1004,0.105,0.105,0.105,0.105,0.105,0.105,0.0496,0.0548,0.0567,0.0635,0.0663,0.0714,0.0738,0.0771,0.0802,0.0865,0.0905,0.0929,0.0968,0.102,0.1065,0.1075,0.1093,0.1098,0.1109,0.1068,0.1063,0.1059,0.1048,0.1102,0.1102,0.115,0.115,0.1151]},{"header":{"parameterUnit":"m.s-1","parameterCategory":1,"la1":30.2991,"la2":30.254,"lo1":-89.0895,"lo2":-89.0444,"dy":0.0017,"dx":0.0017,"nx":28,"ny":28,"refTime":"2023-03-30T21:00:00:Z","depth":0,"parameterNumber":3,"parameterNumberName":"V-component_of_WINDS"},"data":[0,0,0,0,0,0,0,0,0,0,0,0,0,0,0,0,0,0,0,0,0,0,0,0,0,0,0,0,0,0,0,0,0,0,0,0,0,0,0,0,0,0,0,0,0,0,0,0,0,0,0,0,0,0,0,0,0,0,4.5866,4.5867,0,4.5954,4.5955,4.5956,4.5961,4.596,4.5959,4.5958,4.6044,4.6048,4.6051,0,0,0,0,0,0,0,0,0,0,0,0,0,4.57,4.5703,4.5866,4.5867,4.5868,4.5954,4.5955,4.5956,4.5961,4.596,4.5958,4.5957,4.6043,4.6047,4.6051,0,0,0,0,0,0,0,0,0,0,0,0,0,4.5778,4.5704,4.5866,4.5881,4.5883,4.5954,4.5955,4.5957,4.5961,4.596,4.5958,4.5957,4.6042,4.6047,4.6052,4.6112,0,0,4.6067,4.6069,0,0,0,0,0,0,0,0,4.5774,4.5784,4.5877,4.588,4.5883,4.5945,4.5928,4.6009,4.5961,4.5931,4.5958,4.5956,4.6012,4.602,4.6039,4.6116,4.612,4.6067,4.607,4.6072,4.6073,0,0,0,0,0,0,0,4.5768,4.578,4.5901,4.5879,4.5882,4.5883,4.5892,4.5944,4.5979,4.5934,4.5934,4.5945,4.6013,4.6035,4.6041,4.6121,4.6067,4.6071,4.6074,4.6076,4.6255,4.6256,0,0,0,0,0,0,4.576,4.5776,4.5898,4.5903,4.5823,4.5887,4.5897,4.5926,4.5979,4.5985,4.5946,4.5945,4.6027,4.6036,4.6044,4.612,4.6072,4.6077,4.6079,4.6253,4.6255,4.6257,0,0,0,0,0,0,4.5757,4.5771,4.5894,4.584,4.5856,4.5891,4.5924,4.5929,4.595,4.5988,4.5994,4.5961,4.6026,4.6038,4.6096,4.6123,4.6079,4.6083,4.6251,4.6254,4.6256,4.6272,0,0,0,0,0,0,4.5752,4.577,4.5793,4.584,4.5859,4.5945,4.5925,4.5932,4.5959,4.5958,4.6004,4.601,4.6026,4.6089,4.6101,4.6129,4.6087,4.6248,4.6252,4.6255,4.6269,4.6275,4.628,0,0,0,0,0,4.5746,4.5793,4.5795,4.5809,4.5889,4.5947,4.5957,4.5975,4.5961,4.5985,4.601,4.6009,4.6119,4.6095,4.6108,4.6139,4.6247,4.6251,4.6255,4.6267,4.6274,4.6279,0,0,0,0,0,0,4.5746,4.5799,4.5802,4.5865,4.5902,4.5947,4.5978,4.5981,4.6021,4.6019,4.6039,4.6049,4.6107,4.6129,4.6101,4.6201,4.6181,4.6188,4.6185,4.6192,4.6197,4.6191,4.6091,0,0,0,0,0,4.5754,4.5797,4.5841,4.5893,4.5911,4.5942,4.5967,4.5979,4.6016,4.6031,4.606,4.6096,4.6139,4.6167,4.6208,4.6272,4.6283,4.63,4.6305,4.6309,4.6315,4.6353,4.6361,4.6271,4.627,4.627,0,0,4.577,4.5804,4.583,4.5894,4.5923,4.5968,4.5954,4.6001,4.6034,4.6038,4.6096,4.6118,4.616,4.6222,4.6251,4.6242,4.6343,4.6315,4.6318,4.6321,4.6358,4.6366,4.6374,4.6273,4.6273,4.6272,0,0,4.5822,4.5852,4.59,4.593,4.5976,4.5996,4.6007,4.6053,4.6069,4.6128,4.6132,4.6172,4.6244,4.6275,4.63,4.6366,4.6367,4.6379,4.6406,4.6443,4.645,4.6456,4.6481,4.649,4.6384,4.6384,4.6384,0,4.5835,4.5903,4.5923,4.5971,4.5999,4.6007,4.6056,4.6084,4.614,4.616,4.6149,4.6243,4.6271,4.6341,4.6358,4.6377,4.6391,4.6373,4.6447,4.6454,4.646,4.6484,4.6494,4.6386,4.6385,4.6385,4.6385,0,4.5918,4.5965,4.5998,4.6055,4.6087,4.6134,4.6162,4.6192,4.6201,4.6222,4.6283,4.6318,4.6367,4.6385,4.6393,4.6457,4.645,4.6443,4.6423,4.647,4.6493,4.6502,4.6387,4.6387,4.6387,4.6386,0,0,4.5971,4.604,4.6052,4.6079,4.6131,4.6167,4.6216,4.6266,4.6292,4.6331,4.6373,4.6436,4.643,4.6459,4.6471,4.6502,4.6555,4.6492,4.6493,4.6503,4.663,4.6635,4.6645,4.6556,4.6558,4.6559,4.6626,0,4.6029,4.6118,4.6138,4.6214,4.6258,4.6267,4.631,4.6346,4.6368,4.6409,4.6432,4.6477,4.6466,4.6484,4.6516,4.6542,4.6581,4.6537,4.6595,4.6597,4.6585,4.6657,4.6663,4.6724,4.6635,4.6637,4.6638,0,4.6109,4.6152,4.6233,4.6281,4.6301,4.6339,4.6388,4.6426,4.6468,4.6482,4.6515,4.6524,4.6576,4.6554,4.6625,4.6595,4.662,4.6637,4.664,4.6646,4.662,4.6666,4.6744,4.6754,4.6652,4.6651,4.665,0,4.6141,4.6219,4.6278,4.63,4.6358,4.6385,4.641,4.6451,4.6481,4.6523,4.6543,4.659,4.6616,4.6652,4.6675,4.6656,4.6745,4.6724,4.6758,4.6758,4.6776,4.6775,4.686,4.6791,4.6791,4.6791,4.6791,0,4.6204,4.6253,4.6294,4.633,4.6386,4.6409,4.6464,4.6489,4.6525,4.6567,4.6577,4.6615,4.6642,4.6684,4.6701,4.6759,4.677,4.6783,4.6787,4.6783,4.6781,4.6799,4.6796,4.6793,4.6793,4.6792,4.6792,0,4.6249,4.6278,4.6343,4.6394,4.6408,4.6447,4.649,4.6525,4.6548,4.6601,4.6614,4.665,4.67,4.6726,4.6788,4.68,4.6866,4.6867,4.6852,4.6854,4.6887,4.6884,4.6987,4.7003,4.6923,4.6924,4.6924,0,4.6288,4.6327,4.6382,4.6412,4.6438,4.6484,4.6516,4.6541,4.6573,4.6625,4.6655,4.6706,4.6748,4.6829,4.686,4.6908,4.6911,4.6944,4.6918,4.6913,4.6913,4.6911,4.6915,4.6949,4.6949,4.695,4.6951,0,4.6354,4.6368,4.6413,4.6464,4.6501,4.6542,4.6582,4.6605,4.6637,4.6673,4.6726,4.6759,4.6824,4.6875,4.6926,4.6952,4.6957,4.6959,4.6969,4.6965,4.6956,4.6963,4.6865,4.6956,4.6956,4.6955,4.6955,4.6955,4.6398,4.6434,4.6479,4.653,4.6564,4.6602,4.6638,4.6667,4.6712,4.6768,4.678,4.6836,4.6879,4.6949,4.6976,4.702,4.7013,4.7028,4.7032,4.7036,4.7038,4.6949,4.7029,4.7029,4.7029,4.7029,4.7029,0,4.6466,4.6496,4.6543,4.66,4.6641,4.6644,4.6689,4.6722,4.6772,4.6812,4.6855,4.6916,4.6967,4.7003,4.7055,4.7083,4.7087,4.7096,4.7094,4.71,4.7041,4.7027,4.7092,4.7092,4.7092,4.7092,4.7092,4.7092,4.6506,4.6567,4.6586,4.6664,4.6694,4.6751,4.6776,4.6812,4.6845,4.6913,4.6956,4.698,4.7019,4.7074,4.7121,4.713,4.7149,4.7158,4.7168,4.7111,4.7104,4.7098,4.7085,4.7162,4.7162,4.7224,4.7224,4.7225]}]]